Tracking 27420 objects as of 10-Jun-2023
HD Live streaming from Space Station
objects crossing your sky now

STARLINK-1496

Track STARLINK-1496 now!
10-day predictions
STARLINK-1496 is classified as:


NORAD ID: 45780
Int'l Code: 2020-038BC
Perigee: 553.7 km
Apogee: 554.9 km
Inclination: 53.1 °
Period: 95.6 minutes
Semi major axis: 6925 km
RCS: Unknown
Launch date: June 13, 2020
Source: United States (US)
Launch site: AIR FORCE EASTERN TEST RANGE (AFETR)
Your satellite tracking list
Your tracking list is empty




NASA's NSSDC Master Catalog

Two Line Element Set (TLE):
1 45780U 20038BC  23161.32132055  .00007439  00000-0  51755-3 0  9990
2 45780  53.0534  20.9161 0000857 101.1932 258.9153 15.06414340166444
Source of the keplerian elements: AFSPC